Simultaneous Nadir Overpasses (SNOs) Predictions

Prediction of SNOs between AQUA and NPP Satellite Orbit:

Table of predicted SNOs for the next 14.0 days since TLE Epoch: 7/24/2021
Index Date (AQUA) Time (AQUA) Lat,Lon (AQUA) SZA (AQUA ) Date (NPP) Time (NPP) Lat,Lon (NPP) SZA (NPP ) Distance(km) Time Diff (sec)
1 07/25/2021 05:32:34 74.63, -27.82 79.95 07/25/2021 05:31:37 74.62, -27.90 80.02 2.49 57
2 07/25/2021 06:21:36 -75.89, 143.28 101.50 07/25/2021 06:21:56 -75.89, 143.21 101.50 2.12 20
3 07/27/2021 21:48:54 75.11, 89.30 79.99 07/27/2021 21:48:24 75.10, 89.22 80.03 2.31 30
4 07/27/2021 22:37:58 -76.26, -99.69 101.35 07/27/2021 22:38:45 -76.25, -99.76 101.38 1.81 47
5 07/30/2021 13:20:59 -58.38, 17.09 82.08 07/30/2021 13:19:46 -58.59, 15.81 81.80 78.29 73
6 07/30/2021 14:05:13 75.63,-153.39 80.01 07/30/2021 14:05:10 75.62,-153.43 80.02 1.25 3
7 07/30/2021 14:54:19 -76.66, 17.54 101.22 07/30/2021 14:55:33 -76.66, 17.51 101.27 0.65 74
8 08/02/2021 05:32:30 -74.96, 153.01 98.58 08/02/2021 05:31:37 -74.96, 153.03 98.54 0.46 53
9 08/02/2021 06:21:32 76.13, -36.00 80.07 08/02/2021 06:21:56 76.13, -35.98 80.05 0.70 24
10 08/04/2021 21:48:46 -75.56, -89.46 98.60 08/04/2021 21:48:20 -75.57, -89.37 98.60 2.72 26



Historial Predications of SNOs between AQUA and NPP
